{"data":{"norad_id":56925,"intl_designator":"2023-083BB","name":"STARLINK-5733","alt_names":[],"object_type":"PAYLOAD","status":"ACTIVE","operator":null,"country":"US","launch_date":"2023-06-12","launch_site_code":"AFETR","launch_vehicle":null,"mission":null,"orbit_class":"UNKNOWN","rcs_meters":null,"size_class":null,"mass_kg":null,"dimensions":null,"purposes":["comms"],"wikipedia_slug":null,"has_3d_model":false,"image_url":null,"decayed_at":null,"tle_current":{"epoch":"2026-05-24T23:16:11.546976Z","epoch_age_seconds":80975,"freshness":"FRESH","line1":"1 56925U 23083BB  26144.96957809 -.00000108  00000+0  55932-5 0  9991","line2":"2 56925  43.0050 359.9331 0001141 267.6864  92.3857 15.27574124163462","mean_motion":15.27574124,"eccentricity":0.0001141,"inclination_deg":43.005,"raan_deg":359.9331,"arg_perigee_deg":267.6864,"mean_anomaly_deg":92.3857,"bstar":5.5932e-6,"rev_number":16346,"period_min":94.267111322187,"perigee_km":482.28382761279,"apogee_km":483.84955429507,"semimajor_km":6861.2036909539,"source":"CELESTRAK","updated_at":"2026-05-25T13:38:18.207103Z"}}}